Waarnemingen

Advertentie
Mijn weer
AWG, Nederland (6208): temperatuur & dauwpunt: 13.06.2018 02:00:00 - 19.06.2018 02:00:00 (CEST)AWG, Nederland (6208): windsnelheid & windstoten: 13.06.2018 02:00:00 - 19.06.2018 02:00:00 (CEST)AWG, Nederland (6208): windrichting: 13.06.2018 02:00:00 - 19.06.2018 02:00:00 (CEST)AWG, Nederland (6208): luchtdruk: 13.06.2018 02:00:00 - 19.06.2018 02:00:00 (CEST)AWG, Nederland (6208): zicht: 13.06.2018 02:00:00 - 19.06.2018 02:00:00 (CEST)
Datum & Tijd tt [°C] td [°C] ff [km/u] ff [kn] fx [km/u] fx [kn] dd ppp [hPa] vv [km]
19.06.2018 02:00:00 - - - - - - - - -
19.06.2018 01:00:00 16,8 13,6 35 19 36 19 ZZW 1017,3 10
19.06.2018 00:00:00 17,0 13,5 34 18 36 19 ZZW 1017,6 10
18.06.2018 23:00:00 16,7 14,1 31 17 36 19 ZW 1018,5 10
18.06.2018 22:00:00 16,9 14,4 28 15 29 16 ZW 1018,2 10
18.06.2018 21:00:00 18,0 14,3 26 14 29 16 WZW 1018,1 10
18.06.2018 20:00:00 17,5 14,3 29 16 29 16 WZW 1017,9 10
18.06.2018 19:00:00 16,8 14,1 28 15 32 18 WZW 1017,9 10
18.06.2018 18:00:00 16,7 14,9 28 15 29 16 ZW 1017,8 10
18.06.2018 17:00:00 16,6 14,7 26 14 29 16 W 1017,8 10
18.06.2018 16:00:00 17,4 14,7 25 14 29 16 WZW 1018,0 13
18.06.2018 15:00:00 17,6 14,5 24 13 25 14 W 1017,7 10
18.06.2018 14:00:00 17,5 14,8 28 15 29 16 WZW 1017,5 10
18.06.2018 13:00:00 17,0 14,7 28 15 29 16 WZW 1017,6 10
18.06.2018 12:00:00 16,7 15,2 28 15 29 16 ZW 1017,3 8
18.06.2018 11:00:00 16,3 14,9 28 15 29 16 ZW 1017,0 10
18.06.2018 10:00:00 15,7 15,1 29 16 29 16 ZW 1016,7 4,2
18.06.2018 09:00:00 15,8 14,6 29 16 36 19 - 1016,5 2,8
18.06.2018 08:00:00 15,1 14,0 34 18 36 19 ZZW 1016,1 5
18.06.2018 07:00:00 14,7 13,4 39 21 36 19 Z 1016,1 8
18.06.2018 06:00:00 15,3 13,1 35 19 40 21 ZZW 1016,3 10
18.06.2018 05:00:00 15,7 12,9 35 19 36 19 ZZW 1016,4 10
18.06.2018 04:00:00 15,7 12,7 34 18 36 19 - 1016,3 10
18.06.2018 03:00:00 15,5 12,6 31 17 36 19 ZZW 1016,9 10
18.06.2018 02:00:00 15,5 12,4 29 16 32 18 ZZW 1016,8 10
18.06.2018 01:00:00 15,8 12,1 28 15 32 18 ZZW 1017,3 10
18.06.2018 00:00:00 16,1 12,0 24 13 29 16 ZZW 1017,4 10
17.06.2018 23:00:00 15,9 11,8 22 12 22 12 ZW 1017,7 10
17.06.2018 22:00:00 16,1 11,5 22 12 25 14 WZW 1017,5 10
17.06.2018 21:00:00 16,3 11,6 24 13 25 14 WZW 1017,3 10
17.06.2018 20:00:00 17,6 12,1 22 12 25 14 W 1017,0 10
17.06.2018 19:00:00 15,8 11,7 22 12 29 16 W 1016,8 10
17.06.2018 18:00:00 16,8 11,5 29 16 32 18 WZW 1016,9 10
17.06.2018 17:00:00 17,1 10,9 22 12 32 18 W 1016,6 10
17.06.2018 16:00:00 17,4 10,4 28 15 29 16 WZW 1016,4 10
17.06.2018 15:00:00 16,3 11,5 26 14 29 16 W 1016,2 10
17.06.2018 14:00:00 15,6 11,9 29 16 32 18 W 1015,6 10
17.06.2018 13:00:00 16,0 12,3 26 14 29 16 W 1015,1 10
17.06.2018 12:00:00 15,9 11,8 22 12 25 14 WZW 1014,6 10
17.06.2018 11:00:00 16,1 10,0 21 11 22 12 W 1014,3 10
17.06.2018 10:00:00 15,6 10,7 18 10 22 12 W 1013,9 10
17.06.2018 09:00:00 15,5 11,2 21 11 22 12 W 1013,3 10
17.06.2018 08:00:00 15,6 12,9 22 12 25 14 W 1012,8 10
17.06.2018 07:00:00 15,3 13,8 24 13 25 14 ZZW 1012,5 10
17.06.2018 06:00:00 15,4 13,4 28 15 32 18 ZW 1012,3 10
17.06.2018 05:00:00 15,8 13,1 31 17 43 23 ZZW 1012,2 10
17.06.2018 04:00:00 15,2 13,3 37 20 40 21 - 1012,1 10
17.06.2018 03:00:00 14,8 12,1 37 20 40 21 ZZW 1012,4 10
17.06.2018 02:00:00 15,0 11,9 35 19 36 19 ZZW 1012,8 10
17.06.2018 01:00:00 15,8 11,8 24 13 32 18 ZZW 1013,0 10
17.06.2018 00:00:00 16,2 10,9 22 12 25 14 ZZW 1013,3 10
16.06.2018 23:00:00 16,6 11,4 24 13 25 14 ZW 1013,6 10
16.06.2018 22:00:00 17,0 10,8 22 12 22 12 ZW 1013,5 10
16.06.2018 21:00:00 16,5 12,1 13 7 14 8 W 1013,3 10
16.06.2018 20:00:00 16,3 12,8 16 9 18 10 W 1013,4 10
16.06.2018 19:00:00 16,4 13,6 18 10 25 14 WNW 1013,5 10
16.06.2018 18:00:00 18,2 13,9 24 13 25 14 WZW 1013,6 10
16.06.2018 17:00:00 18,6 13,8 24 13 25 14 W 1013,4 10
16.06.2018 16:00:00 18,4 12,7 21 11 22 12 W 1013,4 10
16.06.2018 15:00:00 17,0 13,3 22 12 22 12 WNW 1013,4 10
16.06.2018 14:00:00 17,9 12,1 18 10 18 10 W 1013,8 10
16.06.2018 13:00:00 17,7 10,4 18 10 25 14 W 1014,0 10
16.06.2018 12:00:00 18,5 13,1 15 8 22 12 ZW 1014,2 10
16.06.2018 11:00:00 18,6 13,0 9 5 11 6 ZZW 1014,0 10
16.06.2018 10:00:00 18,2 12,6 9 5 11 6 ZZW 1014,1 10
16.06.2018 09:00:00 17,6 12,0 9 5 11 6 ZZW 1014,2 10
16.06.2018 08:00:00 16,9 11,7 9 5 11 6 Z 1014,1 10
16.06.2018 07:00:00 16,9 11,7 7 4 11 6 Z 1014,2 21
16.06.2018 06:00:00 16,8 12,5 11 6 14 8 ZO 1014,4 19
16.06.2018 05:00:00 17,0 14,4 11 6 14 8 O 1014,7 19
16.06.2018 04:00:00 16,5 13,6 7 4 18 10 O 1015,2 21
16.06.2018 03:00:00 16,6 13,4 14 8 18 10 OZO 1015,3 21
16.06.2018 02:00:00 16,6 13,3 11 6 18 10 OZO 1015,6 22
16.06.2018 01:00:00 16,9 13,6 11 6 18 10 O 1015,9 22
16.06.2018 00:00:00 16,7 13,7 15 8 18 10 OZO 1016,1 10
15.06.2018 23:00:00 16,9 13,2 15 8 22 12 O 1016,3 10
15.06.2018 22:00:00 17,6 12,5 13 7 18 10 NO 1016,5 10
15.06.2018 21:00:00 18,1 12,6 13 7 18 10 - 1016,7 10
15.06.2018 20:00:00 19,4 14,0 15 8 18 10 - 1016,6 10
15.06.2018 19:00:00 21,2 12,7 13 7 14 8 NO 1016,7 10
15.06.2018 18:00:00 19,5 13,4 15 8 18 10 NO 1016,9 10
15.06.2018 17:00:00 20,0 13,0 15 8 18 10 NO 1016,9 10
15.06.2018 16:00:00 20,5 12,2 13 7 14 8 NO 1017,0 10
15.06.2018 15:00:00 20,4 11,4 11 6 11 6 NNO 1017,1 10
15.06.2018 14:00:00 19,1 10,9 9 5 14 8 NNO 1017,2 10
15.06.2018 13:00:00 18,7 11,8 11 6 14 8 N 1017,3 10
15.06.2018 12:00:00 18,3 7,4 9 5 14 8 Z 1017,3 10
15.06.2018 11:00:00 17,9 8,7 9 5 18 10 ZZW 1017,1 10
15.06.2018 10:00:00 17,0 8,8 16 9 18 10 Z 1017,0 10
15.06.2018 09:00:00 16,5 10,3 11 6 14 8 ZZW 1016,8 10
15.06.2018 08:00:00 16,0 11,0 9 5 14 8 ZZW 1016,5 10
15.06.2018 07:00:00 15,2 11,6 11 6 14 8 ZZW 1016,0 10
15.06.2018 06:00:00 14,8 12,0 9 5 11 6 ZZW 1015,9 10
15.06.2018 05:00:00 15,3 11,4 8 4 11 6 WZW 1015,6 10
15.06.2018 04:00:00 15,2 10,8 9 5 7 4 WZW 1015,6 10
15.06.2018 03:00:00 15,2 11,7 9 5 11 6 WZW 1015,4 10
15.06.2018 02:00:00 15,6 10,3 9 5 11 6 W 1015,6 10
15.06.2018 01:00:00 15,6 10,8 13 7 14 8 WNW 1015,3 10
15.06.2018 00:00:00 15,6 11,1 18 10 25 14 WNW 1015,0 10
14.06.2018 23:00:00 15,8 12,0 24 13 25 14 W 1014,4 10
14.06.2018 22:00:00 16,1 13,8 24 13 25 14 W 1013,9 10
14.06.2018 21:00:00 16,1 13,8 28 15 36 19 WZW 1013,1 10
14.06.2018 20:00:00 16,7 14,0 34 18 40 21 WZW 1012,4 10
14.06.2018 19:00:00 16,0 14,1 39 21 43 23 WZW 1012,1 10
14.06.2018 18:00:00 16,1 13,9 44 24 50 27 ZW 1011,7 10
14.06.2018 17:00:00 15,5 14,1 52 28 58 31 ZW 1011,5 7
14.06.2018 16:00:00 16,3 13,3 46 25 61 33 ZW 1010,6 10
14.06.2018 15:00:00 18,6 11,5 54 29 61 33 - 1009,7 10
14.06.2018 14:00:00 18,4 10,8 57 31 61 33 ZZW 1009,7 10
14.06.2018 13:00:00 18,7 10,5 55 30 61 33 - 1009,9 10
14.06.2018 12:00:00 19,3 9,9 48 26 61 33 ZZW 1010,0 10
14.06.2018 11:00:00 19,0 10,4 54 29 58 31 - 1010,4 10
14.06.2018 10:00:00 18,1 10,7 48 26 54 29 ZZW 1010,6 10
14.06.2018 09:00:00 17,4 12,1 41 22 50 27 - 1011,1 10
14.06.2018 08:00:00 15,0 11,6 41 22 43 23 ZZW 1011,5 10
14.06.2018 07:00:00 13,8 10,7 39 21 40 21 ZZW 1012,1 10
14.06.2018 06:00:00 14,6 10,2 41 22 43 23 ZZW 1012,5 10
14.06.2018 05:00:00 15,0 10,3 44 24 47 25 ZZW 1012,7 10
14.06.2018 04:00:00 15,2 10,4 34 18 40 21 ZZW 1013,4 10
14.06.2018 03:00:00 15,5 10,3 28 15 36 19 ZZW 1014,0 10
14.06.2018 02:00:00 15,5 10,3 28 15 32 18 - 1014,5 10
14.06.2018 01:00:00 15,3 10,2 22 12 29 16 ZZW 1015,1 10
14.06.2018 00:00:00 15,3 10,3 21 11 22 12 ZZW 1015,6 10
13.06.2018 23:00:00 15,2 10,3 22 12 22 12 ZW 1015,8 10
13.06.2018 22:00:00 15,2 9,2 21 11 25 14 WZW 1016,0 10
13.06.2018 21:00:00 15,8 8,2 26 14 25 14 W 1016,1 10
13.06.2018 20:00:00 17,3 8,4 26 14 25 14 W 1015,9 10
13.06.2018 19:00:00 16,5 8,6 24 13 25 14 W 1016,2 10
13.06.2018 18:00:00 14,7 10,3 22 12 25 14 W 1016,3 10
13.06.2018 17:00:00 14,5 9,1 26 14 32 18 WNW 1016,5 10
13.06.2018 16:00:00 14,3 9,5 28 15 32 18 WNW 1016,4 10
13.06.2018 15:00:00 14,2 9,2 29 16 32 18 WNW 1016,4 10
13.06.2018 14:00:00 13,9 8,8 34 18 40 21 WNW 1016,4 10
13.06.2018 13:00:00 14,1 8,8 39 21 43 23 WNW 1016,4 10
13.06.2018 12:00:00 13,9 7,1 24 13 32 18 NW 1016,4 10
13.06.2018 11:00:00 13,8 6,9 31 17 36 19 NW 1015,9 10
13.06.2018 10:00:00 13,6 6,8 39 21 43 23 NW 1015,7 10
13.06.2018 09:00:00 13,5 6,9 41 22 43 23 NNW 1015,3 10
13.06.2018 08:00:00 13,6 7,5 39 21 47 25 NW 1015,1 10
13.06.2018 07:00:00 13,7 7,0 42 23 47 25 NW 1014,9 10
13.06.2018 06:00:00 13,8 8,2 44 24 47 25 NNW 1014,9 10
13.06.2018 05:00:00 13,5 8,7 39 21 50 27 NNW 1014,6 10
13.06.2018 04:00:00 14,2 9,5 44 24 47 25 N 1014,7 10
13.06.2018 03:00:00 14,3 10,1 35 19 40 21 NNW 1015,0 10
13.06.2018 02:00:00 14,3 9,1 37 20 40 21 N 1014,9 10

tt = temperatuur
td = dauwpunt
ff = windsnelheid
fx = windstoten
dd = windrichting
ppp = luchtdruk
vv = zicht

Weerstations in de omgeving